Weather Roundup
Issued by NWS Chicago, IL

Home | Current Version | Previous Version | Graphics & Text | Print | Product List | Glossary On
Versions: 1 2 3 4 5 6 7 8 9 10 11 12 13 14 15 16 17 18 19 20 21 22 23 24 25 26 27 28 29 30 31 32 33 34 35 36 37 38 39 40 41 42 43 44 45 46 47 48 49 50
000
NZUS59 KLOT 011421
HRRLOT

CHICAGO AREA WEATHER ROUNDUP
NATIONAL WEATHER SERVICE CHICAGO/ROMEOVILLE IL
900 AM CDT WED APR 01 2015

NOTE: "FAIR" INDICATES FEW OR NO CLOUDS BELOW 12,000 FEET WITH NO
SIGNIFICANT WEATHER AND/OR OBSTRUCTIONS TO VISIBILITY.

* THESE STATIONS ARE NOT UNDER NWS QUALITY CONTROL. THEY ALSO MAY NOT
  REPORT WEATHER SUCH AS PRECIPITATION OR FOG.

ILZ005-006-012>014-019>023-011500-
NORTHEAST ILLINOIS

CITY           SKY/WX    TMP DP  RH WIND       PRES   REMARKS
OHARE          MOSUNNY   48  37  65 S5        30.05R
MIDWAY         MOSUNNY   53  38  56 S7        30.07R
AURORA         SUNNY     49  37  63 S9        30.04S
LANSING*       SUNNY     50  36  59 SW14      30.07S
JOLIET*        SUNNY     53  41  63 S10       30.06S
WAUKEGAN       SUNNY     44  36  73 E5        30.05R
DUPAGE AIRPORT SUNNY     49  38  65 S8        30.04R
WHEELING       SUNNY     48  36  63 S5        30.07R
KANKAKEE*      SUNNY     50  40  67 S16       30.07F
MORRIS*        SUNNY     49  37  64 S10       30.04S
LEWIS AIRPORT* SUNNY     50  38  64 S12       30.06R
NORTHERLY IS     N/A     44  36  73 CALM        N/A
$$

WIZ051-052-058>065-066-070>072-011500-
SOUTHEAST WISCONSIN

CITY           SKY/WX    TMP DP  RH WIND       PRES   REMARKS
MILWAUKEE      MOSUNNY   44  33  65 SE7       30.07R
KENOSHA*       SUNNY     45  36  70 E7        30.05S
RACINE*        PTSUNNY   45  34  65 SE7       30.07R
BURLINGTON     SUNNY     43  34  71 E6        30.04F
WAUKESHA       MOSUNNY   43  32  65 E7        30.05R
WEST BEND      PTSUNNY   43  34  70 E6        30.05R
$$

INZ001>003-010>013-019-020-011500-
NORTHWEST INDIANA

CITY           SKY/WX    TMP DP  RH WIND       PRES   REMARKS
GARY*          SUNNY     52  32  46 CALM      30.08R
MICHIGAN CITY* NOT AVBL
RENSSELAER*    NOT AVBL
VALPARAISO     SUNNY     46  35  65 S8        30.09R
$$

LMZ740>746-011500-
SOUTHERN LAKE MICHIGAN

STATION/POSITION TIME  SKY/WX   TEMP WIND        PRES    VSBY
                                AIR  DIR/SP/G
                 (UTC)          (F)  (DEG/KT/KT) (MB)    (MI)
HARRISON CRIB    1400            45  110/ 10/ 11   N/A
BURNHAM HARBOR   1400            45   CALM  /  2   N/A
CALUMET HARBOR   1300            45  140/  2/  3 1016.7R
BURNS HARBOR     1300            43   80/  4/  5 1019.0R
MICHIGAN CITY    1400            47     CALM       N/A
$$

ABBREVIATIONS USED IN REMARKS
   TC - TEMPERATURE IN CELSIUS
  WCI - WIND CHILL INDEX
   HX - HEAT INDEX
  VSB - VISIBILITY
$$


USA.gov is the U.S. government's official web portal to all federal, state and local government web resources and services.